Torna al catalogo

COSMOS 1275 DEB

AttivoPO
NORAD 12781·DEBRIS·🇷🇺 Russia

Lanciato Jun 4, 1981 da Plesetsk Cosmodrome

Loading…

Prossimi Passaggi (prossime 24 ore)

TLE

AggiornatoSource: Space-Track

Epoca: Sep 13, 2026, 09:58 UTC

1 12781U 81053DX  26256.41586729  .00000672  00000-0  56313-3 0  9995
2 12781  83.1658 236.4718 0070375 119.9729 356.4353 13.85568800261151

Traccia COSMOS 1275 DEB in tempo reale con AllMySat

Download on the App Store